Tracking 18942 objects as of 18-Jan-2018
HD Live streaming from Space Station
objects crossing your sky now

ALTAIR PATHFINDER

Track ALTAIR PATHFINDER now!
10-day predictions


NORAD ID: 42711
Int'l Code: 1998-067LS
Perigee: 390.4 km
Apogee: 396.0 km
Inclination: 51.6 °
Period: 92.3 minutes
Semi major axis: 6764 km
RCS: Unknown
Launch date: November 20, 1998
Source: United States (US)
Launch site: TYURATAM MISSILE AND SPACE COMPLEX (TTMTR)
aabbcc
Your satellite tracking list
Your tracking list is empty




NASA's NSSDC Master Catalog

Two Line Element Set (TLE):
1 42711U 98067LS  18018.07588377  .00009811  00000-0  12256-3 0  9996
2 42711  51.6379  41.2652 0004123 348.8241  11.2660 15.60550507 38009
Source of the keplerian elements: AFSPC